sat.trackr.live / text

‹ back to catalog

STARLINK-6255

NORAD 56550 · 2023-065AZ

PAYLOAD ACTIVE UNKNOWN

§ Identity

Operator
Country
US
Launch date
2023-05-14
Launch site
AFETR
Launch vehicle
Mass (kg)
RCS (m²)

Purposes: comms

External: N2YO · Heavens-Above · Gunter

§ Orbital elements

Epoch: 2026-05-24T07:23:55.728096Z

Period
94.27 min
Inclination
43.0027°
Eccentricity
0.0001534
Mean motion
15.27576788 rev/d
Perigee alt
482.0 km
Apogee alt
484.1 km
Semi-major
6,861.2 km
B*
3.0924e-5
RAAN
156.8157°
Arg perigee
268.0468°
Mean anomaly
92.0208°
Rev number
16,803

§ Raw data

STARLINK-62551 56550U 23065AZ  26144.30828389  .00000589  00000+0  30924-4 0  99982 56550  43.0027 156.8157 0001534 268.0468  92.0208 15.27576788168034

JSON: /api/v1/satellites/56550 · /tle

For live sub-satellite position, see the globe view (requires WebGL).

§ Visibility from observer

Set your observer location to see the next 7 days of passes ≥ 10°. The values pass through the URL so the page stays shareable.

No JS? Fill the form by hand. The geolocation button needs JavaScript.